Race Analysis

 :: S60

Ver o tópico anterior Ver o tópico seguinte Ir em baixo

Race Analysis

Mensagem por Jorge Frade em Seg Set 18, 2017 6:31 pm

Car wear & lap information
Car parts level
Cha Eng FWing RWing Underb Sidep Cool Gear Bra Susp Elec
4 4 4 4 4 5 5 4 4 4 5
Car parts wear (at the start)
0% 30% 29% 31% 0% 64% 58% 28% 35% 28% 52%
Car parts wear (at the finish)
10% 54% 45% 50% 21% 76% 68% 45% 64% 57% 67%
Lap Lap time Pos Tyres Weather Temp Hum Events
0 - 9 Medium Partially Cloudy 13° 18% -
1 1:27.287 11 Medium Partially Cloudy 13° 18% -
2 1:21.539 12 Medium Partially Cloudy 13° 18% -
3 1:21.110 13 Medium Partially Cloudy 13° 18% -
4 1:21.305 13 Medium Partially Cloudy 13° 18% -
5 1:21.164 13 Medium Partially Cloudy 13° 18% -
6 1:19.981 13 Medium Partially Cloudy 13° 18% -
7 1:20.166 13 Medium Partially Cloudy 13° 18% -
8 1:20.667 13 Medium Partially Cloudy 12° 18% -
9 1:21.048 13 Medium Partially Cloudy 11° 17% -
10 1:21.283 13 Medium Partially Cloudy 11° 17% -
11 1:19.814 13 Medium Partially Cloudy 11° 17% -
12 1:20.155 13 Medium Partially Cloudy 11° 17% -
13 1:20.700 14 Medium Partially Cloudy 11° 17% -
14 1:20.964 14 Medium Partially Cloudy 11° 17% -
15 1:20.456 14 Medium Partially Cloudy 11° 17% -
16 1:20.383 14 Medium Partially Cloudy 11° 17% -
17 1:20.228 14 Medium Partially Cloudy 11° 17% -
18 1:20.408 14 Medium Partially Cloudy 11° 17% -
19 1:19.789 14 Medium Partially Cloudy 11° 17% -
20 1:19.529 14 Medium Partially Cloudy 11° 17% -
21 1:20.474 14 Medium Partially Cloudy 11° 17% -
22 1:20.010 12 Medium Partially Cloudy 11° 17% -
23 1:19.435 12 Medium Partially Cloudy 11° 17% -
24 1:19.582 11 Medium Partially Cloudy 11° 17% -
25 1:19.389 8 Medium Partially Cloudy 11° 17% -
26 1:19.412 3 Medium Partially Cloudy 11° 17% -
27 1:19.418 3 Medium Partially Cloudy 11° 17% -
28 1:19.129 3 Medium Partially Cloudy 11° 17% -
29 1:19.068 3 Medium Partially Cloudy 11° 17% -
30 1:18.955 3 Medium Partially Cloudy 12° 17% -
31 1:19.134 3 Medium Partially Cloudy 13° 17% -
32 1:18.890 3 Medium Partially Cloudy 13° 17% -
33 1:18.969 3 Medium Partially Cloudy 14° 17% -
34 1:19.290 3 Medium Partially Cloudy 14° 16% -
35 1:19.663 4 Medium Partially Cloudy 15° 16% -
36 1:19.913 4 Medium Partially Cloudy 15° 16% -
37 1:20.347 4 Medium Partially Cloudy 15° 16% -
38 1:33.851 5 Medium Partially Cloudy 16° 16% Pit
39 1:58.553 12 Medium Partially Cloudy 16° 16% -
40 1:25.991 14 Medium Partially Cloudy 17° 16% Driver mistake
41 1:19.882 14 Medium Partially Cloudy 17° 16% -
42 1:19.960 14 Medium Partially Cloudy 17° 16% -
43 1:19.896 13 Medium Partially Cloudy 17° 16% -
44 1:19.973 13 Medium Partially Cloudy 17° 16% -
45 1:19.489 13 Medium Partially Cloudy 17° 16% -
46 1:19.761 13 Medium Partially Cloudy 17° 16% -
47 1:19.641 12 Medium Partially Cloudy 17° 16% -
48 1:19.646 12 Medium Partially Cloudy 17° 16% -
49 1:19.335 12 Medium Partially Cloudy 17° 16% -
50 1:19.282 9 Medium Partially Cloudy 17° 16% -
51 1:19.230 6 Medium Partially Cloudy 17° 16% -
52 1:19.244 5 Medium Partially Cloudy 16° 16% -
53 1:19.150 5 Medium Partially Cloudy 16° 16% -
54 1:19.023 4 Medium Partially Cloudy 16° 16% -
55 1:19.354 4 Medium Partially Cloudy 16° 16% -
56 1:18.913 4 Medium Partially Cloudy 16° 16% -
57 1:18.963 4 Medium Partially Cloudy 15° 16% -
58 1:19.045 4 Medium Partially Cloudy 15° 16% -
59 1:18.996 4 Medium Partially Cloudy 14° 16% -
60 1:19.116 4 Medium Partially Cloudy 14° 16% -
61 1:18.990 4 Medium Partially Cloudy 13° 16% -
62 1:18.848 4 Medium Partially Cloudy 12° 16% -
63 1:18.800 4 Medium Partially Cloudy 12° 16% -
64 1:18.916 4 Medium Partially Cloudy 11° 15% -
65 1:19.006 4 Medium Partially Cloudy 10° 14% -
66 1:18.998 4 Medium Partially Cloudy 10° 14% -
67 1:19.023 4 Medium Partially Cloudy 10° 14% -
68 1:18.865 4 Medium Partially Cloudy 10° 14% -
69 1:18.918 4 Medium Partially Cloudy 10° 14% -
70 1:19.298 4 Medium Partially Cloudy 10° 14% -
71 1:19.519 4 Medium Partially Cloudy 10° 14% -
72 1:19.879 4 Medium Partially Cloudy 10° 15% -
73 1:20.036 4 Medium Partially Cloudy 9° 15% -
74 1:20.529 4 Medium Partially Cloudy 9° 16% -
75 1:20.637 4 Medium Partially Cloudy 9° 16% -
avatar
Jorge Frade
Admin

Mensagens : 1045
Data de inscrição : 22/09/2014

Ver perfil do usuário http://frteam.foruns.com.pt

Voltar ao Topo Ir em baixo

Re: Race Analysis

Mensagem por Gabriel Miranda em Seg Set 25, 2017 10:00 pm

Brands Hatch (United Kingdom), Época 60


Volta Tempo volta Pos Pneus Tempo Temp (°) Hum (%) Ocorrências
0 - 36 Duros Parcial/nublado 13 18 -
1 1:39.062 37 Duros Parcial/nublado 13 18 -
2 1:19.889 36 Duros Parcial/nublado 13 18 -
3 1:19.620 36 Duros Parcial/nublado 13 18 -
4 1:19.581 36 Duros Parcial/nublado 13 18 -
5 1:19.279 36 Duros Parcial/nublado 13 18 -
6 1:19.174 36 Duros Parcial/nublado 13 18 -
7 1:19.224 36 Duros Parcial/nublado 13 18 -
8 1:19.306 36 Duros Parcial/nublado 12 18 -
9 1:19.420 36 Duros Parcial/nublado 11 17 -
10 1:19.221 36 Duros Parcial/nublado 11 17 -
11 1:19.578 36 Duros Parcial/nublado 11 17 -
12 1:19.717 35 Duros Parcial/nublado 11 17 -
13 1:19.187 35 Duros Parcial/nublado 11 17 -
14 1:18.939 35 Duros Parcial/nublado 11 17 -
15 1:18.927 35 Duros Parcial/nublado 11 17 -
16 1:18.825 35 Duros Parcial/nublado 11 17 -
17 1:18.748 35 Duros Parcial/nublado 11 17 -
18 1:19.141 35 Duros Parcial/nublado 11 17 -
19 1:18.724 35 Duros Parcial/nublado 11 17 -
20 1:18.719 35 Duros Parcial/nublado 11 17 -
21 1:18.863 35 Duros Parcial/nublado 11 17 -
22 1:19.000 35 Duros Parcial/nublado 11 17 -
23 1:18.544 35 Duros Parcial/nublado 11 17 -
24 1:18.896 35 Duros Parcial/nublado 11 17 -
25 1:31.550 35 Duros Parcial/nublado 11 17 Pit
26 1:56.063 36 Duros Parcial/nublado 11 17 -
27 1:19.662 36 Duros Parcial/nublado 11 17 -
28 1:19.514 36 Duros Parcial/nublado 11 17 -
29 1:19.514 36 Duros Parcial/nublado 11 17 -
30 1:19.108 36 Duros Parcial/nublado 12 17 -
31 1:19.333 36 Duros Parcial/nublado 13 17 -
32 1:19.129 36 Duros Parcial/nublado 13 17 -
33 1:18.773 36 Duros Parcial/nublado 14 17 -
34 1:18.786 36 Duros Parcial/nublado 14 16 -
35 1:18.887 36 Duros Parcial/nublado 15 16 -
36 1:18.593 36 Duros Parcial/nublado 15 16 -
37 1:18.824 36 Duros Parcial/nublado 15 16 -
38 1:18.608 36 Duros Parcial/nublado 16 16 -
39 1:18.513 36 Duros Parcial/nublado 16 16 -
40 1:18.656 36 Duros Parcial/nublado 17 16 -
41 1:18.521 35 Duros Parcial/nublado 17 16 -
42 1:18.151 35 Duros Parcial/nublado 17 16 -
43 1:18.239 36 Duros Parcial/nublado 17 16 -
44 1:18.099 36 Duros Parcial/nublado 17 16 -
45 1:18.161 36 Duros Parcial/nublado 17 16 -
46 1:18.171 36 Duros Parcial/nublado 17 16 -
47 1:17.916 36 Duros Parcial/nublado 17 16 -
48 1:18.328 36 Duros Parcial/nublado 17 16 -
49 1:20.683 36 Duros Parcial/nublado 17 16 Problema no carro
50 1:33.277 36 Duros Parcial/nublado 17 16 Problema no carro, Pit
51 1:58.156 36 Duros Parcial/nublado 17 16 Problema no carro
52 1:21.400 36 Duros Parcial/nublado 16 16 Problema no carro
53 1:21.446 36 Duros Parcial/nublado 16 16 Problema no carro
54 1:21.291 36 Duros Parcial/nublado 16 16 Problema no carro
55 1:21.406 36 Duros Parcial/nublado 16 16 Problema no carro
56 1:21.646 36 Duros Parcial/nublado 16 16 Problema no carro
57 1:21.664 36 Duros Parcial/nublado 15 16 Problema no carro
58 1:21.624 36 Duros Parcial/nublado 15 16 Problema no carro
59 1:21.363 36 Duros Parcial/nublado 14 16 Problema no carro
60 1:21.362 36 Duros Parcial/nublado 14 16 Problema no carro
61 1:21.513 36 Duros Parcial/nublado 13 16 Problema no carro
62 1:21.801 36 Duros Parcial/nublado 12 16 Problema no carro
63 1:22.264 36 Duros Parcial/nublado 12 16 Problema no carro
64 1:21.437 36 Duros Parcial/nublado 11 15 Problema no carro
65 1:22.229 36 Duros Parcial/nublado 10 14 Problema no carro
66 1:22.168 36 Duros Parcial/nublado 10 14 Problema no carro
67 1:21.600 36 Duros Parcial/nublado 10 14 Problema no carro
68 1:22.350 36 Duros Parcial/nublado 10 14 Problema no carro
69 1:21.409 36 Duros Parcial/nublado 10 14 Problema no carro
70 1:22.080 36 Duros Parcial/nublado 10 14 Problema no carro
71 1:22.217 36 Duros Parcial/nublado 10 14 Problema no carro
72 1:21.562 36 Duros Parcial/nublado 10 15 Problema no carro
73 1:21.832 36 Duros Parcial/nublado 9 15 Problema no carro
74 1:22.398 36 Duros Parcial/nublado 9 16 Problema no carro
75 1:21.644 36 Duros Parcial/nublado 9 16 Problema no carro


Riscos usados:
Ultrapassagem Defesa Pista Livre e Seca Pista Livre e Chuva Avaria
0 0 0 0 0

Afinação usada:
Asa Dianteira Asa Traseira Motor Travões Caixa Suspensão
453 423 817 321 696 800

Cha Mot ADiant ATras Carroç Later Refrig Caixa Trav Susp Elec
Nível das peças: 7 5 6 6 7 7 7 5 6 6 7
Desgaste das Peças (no início) (%): 58 84 84 84 74 45 40 79 81 84 34
Desgaste das Peças (no final) (%): 63 99 94 96 88 52 46 90 99 99 44

Combustível inicíal (litros): 70

Pit Razão da paragem Estado pneus (%) Combust. restante (%) Reabast. até (litros) Tempo da paragem (seg)
Paragem 1 (Volta 25): Não havia mais combustível 70 1 70 litros 23.323
Paragem 2 (Volta 50): Não havia mais combustível 69 1 70 litros 23.360


Problemas técnicos
Volta 49 A suspensão partiu e o carro ficou impossível de conduzir

Estado dos pneus após o final (%): 70

Combustível restante no final (litros): 1
avatar
Gabriel Miranda

Mensagens : 927
Data de inscrição : 29/12/2014
Idade : 44

Ver perfil do usuário

Voltar ao Topo Ir em baixo

Ver o tópico anterior Ver o tópico seguinte Voltar ao Topo

- Tópicos similares

 :: S60

 
Permissão deste fórum:
Você não pode responder aos tópicos neste fórum